EHI
0 0 0 0 0 0 0 0 0 0 0 0 0 0 0 0 0 0 0 0 0 0 0 0 0 0 0 0 1 1 1 0 0 0 0 0 0 0 0 0 0 0 0
0 0 0 0 0 0 0 0 0 0 0 0 0 0 0 0 0 0 0 0 0 0 0 0 0 0 0 0 0 0 0 0 0 0 0 0 0 0 0 0 0 0 0
1 0 0 0 0 0 0 0 0 0 0 0 0 0 0 0 0 0 0 0 0 0 0 0 0 0 0 0 0 0 0 0 0 0 0 0 0 0 0 0 0 0 0
1 0 0 0 0 0 0 0 0 0 0 0 0 0 0 0 0 0 0 0 0 0 0 0 0 0 0 0 0 0 0 0 0 0 0 0 0 0 0 0 0 0 0
1 0 0 0 0 0 0 0 0 0 0 0 0 0 0 0 0 0 0 0 0 0 0 0 0 0 0 0 0 0 0 0 0 0 0 0 0 0 0 0 0 0 0
0 0 0 0 0 0 0 0 0 0 0 0 0 0 0 0 0 0 0 0 0 0 0 0 0 0 0 0 0 0 0 0 0 0 0 0 0 0 0 0 0 0 0
0 0 0 0 0 0 0 0 0 0 0 0 0 0 0 0 0 0 0 0 0 0 0 0 0 0 0 0 0 0 0 0 0 0 0 0 0 0 0 0 0 0 0
0 0 0 0 0 0 0 0 0 0 0 0 0 0 0 0 0 0 0 0 0 0 0 0 0 0 0 0 0 0 0 0 0 0 0 0 0 0 0 0 0 0 0
0 0 0 0 0 0 0 0 0 0 0 0 0 0 0 0 0 0 0 0 0 0 0 0 0 0 0 0 0 0 0 0 0 0 0 0 0 0 0 0 0 0 0
0 0 0 0 0 0 0 0 0 0 0 0 0 0 0 0 0 0 0 0 0 0 0 0 0 0 0 0 0 0 0 0 0 0 0 0 0 0 0 0 0 0 0
0 0 0 0 0 0 0 0 0 0 0 0 0 0 0 0 0 0 0 0 0 0 0 0 0 0 0 0 0 0 0 0 0 0 0 0 0 0 0 0 0 0 0
0 0 0 0 0 0 0 0 0 0 0 0 0 0 0 0 0 0 0 0 0 0 0 0 0 0 0 0 0 0 0 0 0 0 0 0 0 0 0 0 0 0 0
0 0 0 0 0 0 0 0 0 0 0 0 0 0 0 0 0 0 0 0 0 0 0 0 0 0 0 0 0 0 0 0 0 0 0 0 0 0 0 0 0 0 0
0 0 0 0 0 0 0 0 0 0 0 0 0 0 0 0 0 0 0 0 0 0 0 0 0 0 0 0 0 0 0 0 0 0 0 0 0 0 0 0 0 0 0
0 0 0 0 0 0 0 0 0 0 0 0 0 0 0 0 0 0 0 0 0 0 0 0 0 0 0 0 0 0 0 0 0 0 0 0 0 0 0 0 0 0 0
0 0 0 0 0 0 0 0 0 0 0 0 0 0 0 0 0 0 0 0 0 0 0 0 0 0 0 0 0 0 0 0 0 0 0 0 0 0 0 0 0 0 0
0 0 0 0 0 0 0 0 0 0 0 0 0 0 0 0 0 0 0 0 0 0 0 0 0 0 0 0 0 0 0 0 0 0 0 0 0 0 0 0 0 0 0
0 0 0 0 0 0 0 0 0 0 0 0 0 0 0 0 0 0 0 0 0 0 0 0 0 0 0 0 0 0 0 0 0 0 0 0 0 0 0 0 0 0 0
0 0 0 0 0 0 0 0 0 0 0 0 0 0 0 0 0 0 0 0 0 0 0 0 0 0 0 0 0 0 0 0 0 0 0 0 0 0 0 0 0 0 0
0 0 0 0 0 0 0 0 0 0 0 0 0 0 0 0 0 0 0 0 0 0 0 0 0 0 0 0 0 0 0 0 0 0 0 0 0 0 0 0 0 0 0
0 0 0 0 0 0 0 0 0 0 0 0 0 0 0 0 0 0 0 0 0 0 0 0 0 0 0 0 0 0 0 0 0 0 0 0 0 0 0 0 0 0 0
0 0 0 0 0 0 0 0 0 0 0 0 0 0 0 0 0 0 0 0 0 0 0 0 0 0 0 0 0 0 0 0 0 0 0 0 0 0 0 0 0 0 0
0 0 0 0 0 0 0 0 0 0 0 0 0 0 0 0 0 0 0 0 0 0 0 0 0 0 0 0 0 0 0 0 0 0 0 0 0 0 0 0 0 0 0
0 0 0 0 0 0 0 0 0 0 0 0 0 0 0 0 0 0 0 0 0 0 0 0 0 0 0 0 0 0 0 0 0 0 0 0 0 0 0 0 0 0 0
0 0 0 0 0 0 0 0 0 0 0 0 0 0 0 0 0 0 0 0 0 0 0 0 0 0 0 0 0 0 0 0 0 0 0 0 0 0 0 0 0 0 0
0 0 0 0 0 0 0 0 0 0 0 0 0 0 0 0 0 0 0 0 0 0 0 0 0 0 0 0 0 0 0 0 0 0 0 0 0 0 0 0 0 0 0
Wind_Speed
3 3 2 2 2 2 2 2 2 2 3 3 3 3 2 2 2 2 2 6 7 8 8 8 9 9 10 10 11 11 11 12 12 12 13 13 13 14 14 15 15 15 16
3 2 2 2 2 1 2 1 2 2 2 2 2 3 2 2 2 2 2 3 6 8 8 9 9 10 10 11 11 12 12 13 13 13 14 14 14 14 15 16 16 17 17
3 2 2 2 2 1 1 1 2 1 2 2 2 2 2 2 2 2 2 2 3 5 8 9 10 10 11 11 12 12 13 13 14 14 15 15 15 15 16 17 17 18 18
3 2 2 2 1 1 1 1 1 1 2 2 2 2 1 1 2 2 2 3 3 3 5 9 10 11 11 12 12 13 13 14 15 15 15 16 16 17 17 18 18 18 18
3 2 2 2 1 1 1 1 1 1 2 2 2 2 2 1 1 1 2 3 3 4 4 5 8 10 11 12 13 13 14 15 15 16 16 17 17 17 18 18 18 19 19
3 2 2 2 1 1 1 1 1 2 2 2 2 2 2 1 1 1 2 2 3 4 5 6 5 6 9 12 13 14 15 16 17 17 17 18 18 19 19 19 19 20 20
3 2 2 2 1 1 1 1 1 2 2 2 2 2 1 1 1 2 2 3 3 4 5 6 5 6 5 9 12 14 16 17 18 18 18 19 19 20 20 20 20 20 20
3 2 2 2 1 1 1 1 1 1 1 2 2 2 2 1 1 2 2 3 3 4 5 6 7 7 7 6 8 13 16 18 19 19 19 20 20 21 21 21 21 21 21
3 3 2 2 1 1 1 0 0 0 0 1 2 3 3 2 3 2 3 3 3 5 5 6 7 7 8 7 8 11 16 18 19 20 20 21 21 22 22 22 22 22 22
4 3 3 2 2 1 1 0 0 1 1 1 1 1 3 3 3 3 3 3 5 6 7 6 7 7 8 7 8 13 16 19 20 20 21 22 22 23 23 23 23 23 23
4 3 3 2 2 1 1 1 1 1 1 1 1 1 2 2 4 4 5 5 6 5 6 7 7 7 8 8 8 12 17 19 20 21 21 22 22 23 23 22 22 22 22
3 4 3 3 2 2 1 1 1 1 1 2 2 2 2 2 3 4 5 7 7 6 7 6 6 6 7 8 10 14 18 19 20 21 21 21 22 22 22 22 22 22 22
3 4 3 3 2 2 2 2 2 2 2 2 3 2 3 3 3 4 5 7 8 7 7 6 5 6 7 8 9 15 17 18 19 20 21 21 21 22 22 22 22 22 22
4 4 4 3 3 3 2 2 2 2 2 2 3 3 3 3 3 4 5 6 8 7 6 8 6 6 7 9 11 16 13 17 19 20 21 21 21 22 22 22 21 22 22
3 4 4 4 3 3 2 2 2 2 2 2 2 3 3 3 3 4 4 5 6 8 8 7 6 7 9 9 12 12 13 16 19 20 20 21 21 22 22 22 22 22 22
4 4 4 3 3 3 2 2 2 2 2 2 2 3 3 3 3 3 4 4 5 7 8 8 8 10 11 10 13 13 13 17 17 18 20 21 21 21 21 21 21 22 22
4 4 4 3 3 2 2 2 2 2 2 2 2 3 4 4 4 4 4 4 5 6 9 9 9 10 13 13 12 12 12 12 11 16 19 20 21 20 20 21 21 21 22
4 4 3 3 2 2 2 2 2 2 2 2 3 3 4 4 5 4 4 5 5 6 8 11 10 10 12 12 12 13 11 10 10 15 18 19 19 20 20 20 20 21 21
4 3 3 2 2 2 2 1 1 2 2 2 3 4 4 4 5 5 6 5 5 6 7 9 10 9 9 10 12 12 12 10 11 12 15 16 18 19 19 19 20 20 20
4 3 3 2 2 1 1 1 1 2 2 2 3 4 4 4 5 6 5 6 6 7 7 8 9 9 9 10 10 10 11 10 10 11 11 14 15 17 17 18 19 19 19
4 3 3 2 1 1 1 1 1 2 2 3 3 4 4 5 7 6 6 6 6 6 6 7 8 9 9 10 10 9 11 11 11 8 10 10 10 9 11 13 15 18 19
3 3 3 2 1 0 1 1 1 2 2 3 3 4 4 5 6 7 9 9 8 7 8 7 7 9 11 11 10 10 10 11 9 8 10 11 9 9 9 9 15 19 19
3 3 2 2 1 0 1 1 1 2 2 3 3 4 4 4 6 5 6 8 8 9 9 8 9 10 11 11 11 12 11 11 11 10 10 10 9 9 9 10 16 18 18
3 2 2 1 1 0 1 1 1 2 2 3 3 4 4 5 5 6 6 7 7 7 8 7 8 9 9 10 10 10 11 11 10 7 8 9 9 9 9 9 13 16 18
3 2 1 1 0 0 1 1 2 2 2 3 3 4 4 5 6 8 6 7 8 7 7 9 11 11 13 13 11 8 8 8 9 7 6 7 8 10 9 7 9 15 17
2 2 1 1 0 1 1 1 2 1 2 2 3 3 4 5 7 7 6 6 7 8 8 9 9 9 9 9 10 8 7 7 8 7 6 7 7 8 7 6 8 9 10
Wind_Direction
110 104 94 86 79 71 69 52 47 44 36 31 24 18 17 19 15 11 34 21 10 10 7 2 356 350 344 341 339 334 331 327 323 319 316 311 306 302 300 298 296 295 293
113 115 106 85 73 64 52 45 43 30 26 21 19 15 9 14 15 5 12 31 22 10 5 360 355 351 346 342 339 335 331 327 325 321 316 311 308 304 301 298 295 292 291
121 118 109 98 73 61 73 58 48 22 23 15 13 11 7 6 356 1 1 354 9 17 4 356 351 349 346 341 338 335 332 329 327 324 320 315 308 305 302 299 295 291 289
125 121 114 97 84 70 61 57 26 13 16 358 354 358 350 339 334 346 355 359 353 353 4 359 351 348 345 341 338 334 332 330 327 325 323 319 315 308 303 299 296 294 291
137 129 116 106 107 76 51 45 20 360 6 359 350 341 334 316 324 333 353 360 359 348 342 351 346 344 342 338 336 332 331 329 326 323 321 318 314 311 307 302 298 295 292
145 131 124 120 113 99 60 33 38 21 12 354 338 333 321 296 281 316 329 338 345 340 336 335 330 337 338 335 334 332 331 328 325 322 319 316 313 310 307 304 300 297 294
147 141 133 132 135 111 69 41 38 43 28 359 326 325 283 244 256 299 302 309 326 329 328 329 327 327 326 331 331 332 330 326 323 321 319 317 315 312 309 307 304 301 296
155 157 154 150 143 129 114 80 50 26 33 2 332 315 305 250 210 294 291 295 306 319 322 324 324 324 321 320 327 327 327 325 323 320 319 317 315 313 310 307 305 303 300
165 166 166 160 153 156 145 117 87 326 349 1 342 318 312 318 322 264 277 287 306 314 316 320 318 319 320 318 319 327 327 324 321 319 318 316 315 312 310 308 306 303 302
170 169 169 172 169 171 168 182 294 299 270 280 309 321 312 311 294 300 283 290 304 307 311 312 313 315 317 315 317 319 324 321 319 318 317 316 314 313 312 311 308 306 304
174 174 176 179 181 188 197 213 238 262 271 273 279 285 279 278 272 284 295 305 303 301 307 306 305 309 314 314 313 320 322 318 316 317 316 315 314 314 313 313 311 309 306
177 178 184 186 192 198 207 224 242 248 263 272 274 270 277 281 287 286 291 301 304 305 305 300 302 310 313 314 315 321 318 315 315 315 316 315 315 314 314 313 311 309 308
185 188 191 198 200 211 219 227 241 252 257 264 271 281 279 280 286 284 287 297 299 300 300 297 306 311 313 314 316 322 315 315 315 315 316 316 316 315 314 313 311 309 308
190 187 195 203 208 213 219 225 237 247 260 266 277 286 282 281 283 283 287 297 300 297 297 302 310 308 316 316 319 317 313 316 318 317 317 317 316 316 315 314 313 311 309
182 186 193 200 205 214 221 228 236 244 262 269 281 284 286 287 285 285 287 287 292 301 305 309 314 315 318 315 317 314 313 318 318 317 317 316 316 316 315 314 313 311 310
177 182 188 195 201 208 220 229 241 251 260 274 286 288 290 291 289 288 289 288 285 288 291 303 309 313 316 313 317 315 315 316 313 316 317 317 317 317 317 316 316 314 312
174 181 184 191 198 206 218 227 243 252 260 276 285 289 293 296 296 296 296 291 290 289 288 299 306 312 315 317 318 318 316 315 314 317 317 318 319 319 318 318 317 316 314
169 176 179 186 192 202 216 231 245 254 262 277 290 292 294 298 298 299 296 295 294 294 293 300 308 314 316 319 319 319 319 316 314 317 317 318 317 318 319 319 319 317 316
161 166 174 179 186 197 211 231 243 258 275 287 293 293 297 300 299 301 299 298 298 299 297 298 306 313 314 320 321 319 318 317 317 317 317 318 319 320 319 319 320 320 319
158 160 164 168 177 191 208 232 257 267 290 302 303 298 298 299 300 305 302 304 306 304 303 302 306 313 317 321 321 322 322 323 318 316 318 319 318 319 319 321 321 323 324
150 152 152 147 150 169 223 260 263 281 291 303 307 303 302 305 307 309 309 310 310 306 307 307 311 315 319 325 326 323 318 318 314 317 320 318 318 318 320 321 323 328 329
138 142 145 145 143 118 349 322 311 287 291 297 304 307 305 300 306 305 309 311 310 307 309 310 309 313 317 321 322 319 317 318 316 324 319 313 315 315 318 319 327 330 330
138 137 138 146 158 96 336 307 316 297 295 299 304 307 310 312 311 312 313 311 307 308 308 306 304 310 313 318 318 316 315 313 306 311 312 304 313 314 317 320 326 330 333
144 142 143 154 163 61 337 322 310 292 299 308 306 305 305 309 322 326 317 315 312 313 314 309 305 308 312 314 313 308 307 305 300 303 312 304 314 315 316 315 325 333 337
145 146 148 144 153 69 355 346 327 303 307 316 315 310 309 311 327 329 317 313 314 319 321 318 316 314 315 317 321 317 317 318 315 315 324 311 313 316 312 312 326 334 336
144 144 140 145 121 31 19 4 344 319 318 321 322 315 312 322 327 325 315 314 317 323 326 324 323 324 322 325 329 321 316 313 314 313 332 326 317 325 316 314 327 331 334